Year,Month,Day,Hour,Minute,Value (Times are PST for temperature in C)
2011,09,19,00,00,10.80
2011,09,19,00,01,10.80
2011,09,19,00,02,10.80
2011,09,19,00,03,10.80
2011,09,19,00,04,10.80
2011,09,19,00,05,10.80
2011,09,19,00,06,10.80
2011,09,19,00,07,10.80
2011,09,19,00,08,10.80
2011,09,19,00,09,10.80
2011,09,19,00,10,10.80
2011,09,19,00,11,10.80
2011,09,19,00,12,10.70
2011,09,19,00,17,10.70
2011,09,19,00,18,10.70
2011,09,19,00,19,10.60
2011,09,19,00,20,10.60
2011,09,19,00,21,10.60
2011,09,19,00,22,10.60
2011,09,19,00,23,10.60
2011,09,19,00,24,10.60
2011,09,19,00,25,10.60
2011,09,19,00,26,10.60
2011,09,19,00,27,10.60
2011,09,19,00,28,10.60
2011,09,19,00,29,10.60
2011,09,19,00,30,10.60
2011,09,19,00,31,10.60
2011,09,19,00,32,10.60
2011,09,19,00,33,10.60
2011,09,19,00,34,10.60
2011,09,19,00,35,10.60
2011,09,19,00,36,10.60
2011,09,19,00,37,10.60
2011,09,19,00,38,10.60
2011,09,19,00,39,10.60
2011,09,19,00,40,10.60
2011,09,19,00,41,10.60
2011,09,19,00,42,10.60
2011,09,19,00,43,10.60
2011,09,19,00,44,10.60
2011,09,19,00,45,10.60
2011,09,19,00,46,10.60
2011,09,19,00,47,10.60
2011,09,19,00,48,10.60
2011,09,19,00,49,10.60
2011,09,19,00,50,10.60
2011,09,19,00,51,10.60
2011,09,19,00,52,10.60
2011,09,19,00,53,10.60
2011,09,19,00,54,10.60
2011,09,19,00,55,10.60
2011,09,19,00,56,10.60
2011,09,19,00,57,10.60
2011,09,19,00,58,10.60
2011,09,19,00,59,10.60
2011,09,19,01,00,10.60
2011,09,19,01,01,10.60
2011,09,19,01,02,10.60
2011,09,19,01,03,10.60
2011,09,19,01,04,10.60
2011,09,19,01,05,10.60
2011,09,19,01,06,10.60
2011,09,19,01,07,10.60
2011,09,19,01,08,10.60
2011,09,19,01,09,10.60
2011,09,19,01,10,10.60
2011,09,19,01,11,10.70
2011,09,19,01,12,10.60
2011,09,19,01,13,10.60
2011,09,19,01,14,10.60
2011,09,19,01,15,10.60
2011,09,19,01,16,10.60
2011,09,19,01,17,10.60
2011,09,19,01,18,10.60
2011,09,19,01,19,10.60
2011,09,19,01,20,10.60
2011,09,19,01,21,10.60
2011,09,19,01,22,10.60
2011,09,19,01,23,10.60
2011,09,19,01,24,10.60
2011,09,19,01,25,10.60
2011,09,19,01,26,10.60
2011,09,19,01,27,10.60
2011,09,19,01,28,10.60
2011,09,19,01,29,10.60
2011,09,19,01,30,10.60
2011,09,19,01,31,10.60
2011,09,19,01,32,10.60
2011,09,19,01,33,10.60
2011,09,19,01,34,10.60
2011,09,19,01,35,10.60
2011,09,19,01,36,10.60
2011,09,19,01,37,10.60
2011,09,19,01,38,10.60
2011,09,19,01,39,10.70
2011,09,19,01,40,10.70
2011,09,19,01,41,10.70
2011,09,19,01,42,10.70
2011,09,19,01,43,10.70
2011,09,19,01,44,10.70
2011,09,19,01,45,10.70
2011,09,19,01,46,10.70
2011,09,19,01,47,10.70
2011,09,19,01,48,10.70
2011,09,19,01,49,10.70
2011,09,19,01,50,10.70
2011,09,19,01,51,10.70
2011,09,19,01,52,10.70
2011,09,19,01,53,10.70
2011,09,19,01,54,10.60
2011,09,19,01,55,10.70
2011,09,19,01,56,10.70
2011,09,19,01,57,10.60
2011,09,19,01,58,10.70
2011,09,19,01,59,10.70
2011,09,19,02,00,10.70
2011,09,19,02,01,10.60
2011,09,19,02,02,10.70
2011,09,19,02,03,10.60
2011,09,19,02,04,10.70
2011,09,19,02,05,10.70
2011,09,19,02,06,10.70
2011,09,19,02,07,10.70
2011,09,19,02,08,10.60
2011,09,19,02,09,10.60
2011,09,19,02,10,10.70
2011,09,19,02,11,10.70
2011,09,19,02,12,10.70
2011,09,19,02,13,10.70
2011,09,19,02,14,10.70
2011,09,19,02,15,10.70
2011,09,19,02,16,10.70
2011,09,19,02,17,10.70
2011,09,19,02,18,10.70
2011,09,19,02,19,10.70
2011,09,19,02,20,10.70
2011,09,19,02,21,10.70
2011,09,19,02,22,10.70
2011,09,19,02,23,10.70
2011,09,19,02,24,10.70
2011,09,19,02,25,10.70
2011,09,19,02,26,10.70
2011,09,19,02,27,10.70
2011,09,19,02,28,10.70
2011,09,19,02,29,10.70
2011,09,19,02,30,10.70
2011,09,19,02,31,10.70
2011,09,19,02,32,10.70
2011,09,19,02,33,10.70
2011,09,19,02,34,10.70
2011,09,19,02,35,10.70
2011,09,19,02,36,10.70
2011,09,19,02,37,10.70
2011,09,19,02,38,10.70
2011,09,19,02,39,10.60
2011,09,19,02,40,10.60
2011,09,19,02,41,10.60
2011,09,19,02,42,10.60
2011,09,19,02,43,10.60
2011,09,19,02,44,10.60
2011,09,19,02,45,10.60
2011,09,19,02,46,10.60
2011,09,19,02,47,10.60
2011,09,19,02,48,10.60
2011,09,19,02,49,10.60
2011,09,19,02,50,10.60
2011,09,19,02,51,10.60
2011,09,19,02,52,10.60
2011,09,19,02,53,10.60
2011,09,19,02,54,10.50
2011,09,19,02,55,10.50
2011,09,19,02,56,10.50
2011,09,19,02,57,10.50
2011,09,19,02,58,10.50
2011,09,19,02,59,10.50
2011,09,19,03,00,10.50
2011,09,19,03,01,10.50
2011,09,19,03,02,10.50
2011,09,19,03,03,10.50
2011,09,19,03,04,10.50
2011,09,19,03,05,10.50
2011,09,19,03,06,10.50
2011,09,19,03,07,10.50
2011,09,19,03,08,10.40
2011,09,19,03,09,10.40
2011,09,19,03,10,10.40
2011,09,19,03,11,10.40
2011,09,19,03,12,10.40
2011,09,19,03,13,10.40
2011,09,19,03,14,10.40
2011,09,19,03,15,10.40
2011,09,19,03,16,10.40
2011,09,19,03,17,10.40
2011,09,19,03,18,10.40
2011,09,19,03,19,10.40
2011,09,19,03,20,10.50
2011,09,19,03,21,10.40
2011,09,19,03,22,10.40
2011,09,19,03,23,10.40
2011,09,19,03,24,10.40
2011,09,19,03,25,10.40
2011,09,19,03,26,10.40
2011,09,19,03,27,10.40
2011,09,19,03,28,10.40
2011,09,19,03,29,10.40
2011,09,19,03,30,10.40
2011,09,19,03,31,10.40
2011,09,19,03,32,10.40
2011,09,19,03,33,10.30
2011,09,19,03,34,10.30
2011,09,19,03,35,10.30
2011,09,19,03,36,10.30
2011,09,19,03,37,10.30
2011,09,19,03,38,10.30
2011,09,19,03,39,10.30
2011,09,19,03,40,10.30
2011,09,19,03,41,10.30
2011,09,19,03,42,10.30
2011,09,19,03,43,10.30
2011,09,19,03,44,10.30
2011,09,19,03,45,10.30
2011,09,19,03,46,10.30
2011,09,19,03,47,10.20
2011,09,19,03,48,10.20
2011,09,19,03,49,10.20
2011,09,19,03,50,10.20
2011,09,19,03,51,10.20
2011,09,19,03,52,10.20
2011,09,19,03,53,10.20
2011,09,19,03,54,10.10
2011,09,19,03,55,10.10
2011,09,19,03,56,10.10
2011,09,19,03,57,10.10
2011,09,19,03,58,10.10
2011,09,19,03,59,10.10
2011,09,19,04,00,10.10
2011,09,19,04,01,10.10
2011,09,19,04,02,10.10
2011,09,19,04,03,10.10
2011,09,19,04,04,10.10
2011,09,19,04,05,10.10
2011,09,19,04,06,10.10
2011,09,19,04,07,10.10
2011,09,19,04,08,10.10
2011,09,19,04,09,10.10
2011,09,19,04,10,10.00
2011,09,19,04,11,10.00
2011,09,19,04,12,10.00
2011,09,19,04,13,10.00
2011,09,19,04,14,9.90
2011,09,19,04,15,9.90
2011,09,19,04,16,9.90
2011,09,19,04,17,9.90
2011,09,19,04,18,9.90
2011,09,19,04,19,9.90
2011,09,19,04,20,9.90
2011,09,19,04,21,9.90
2011,09,19,04,22,9.90
2011,09,19,04,23,9.90
2011,09,19,04,24,9.80
2011,09,19,04,25,9.80
2011,09,19,04,26,9.80
2011,09,19,04,27,9.80
2011,09,19,04,28,9.80
2011,09,19,04,29,9.80
2011,09,19,04,30,9.80
2011,09,19,04,31,9.80
2011,09,19,04,32,9.80
2011,09,19,04,33,9.70
2011,09,19,04,34,9.70
2011,09,19,04,35,9.70
2011,09,19,04,36,9.70
2011,09,19,04,37,9.70
2011,09,19,04,38,9.70
2011,09,19,04,39,9.60
2011,09,19,04,40,9.60
2011,09,19,04,41,9.60
2011,09,19,04,42,9.60
2011,09,19,04,43,9.60
2011,09,19,04,44,9.60
2011,09,19,04,45,9.60
2011,09,19,04,46,9.60
2011,09,19,04,47,9.60
2011,09,19,04,48,9.60
2011,09,19,04,49,9.60
2011,09,19,04,50,9.50
2011,09,19,04,51,9.50
2011,09,19,04,52,9.50
2011,09,19,04,53,9.50
2011,09,19,04,54,9.50
2011,09,19,04,55,9.50
2011,09,19,04,56,9.50
2011,09,19,04,57,9.50
2011,09,19,04,58,9.50
2011,09,19,04,59,9.50
2011,09,19,05,00,9.50
2011,09,19,05,01,9.50
2011,09,19,05,02,9.50
2011,09,19,05,03,9.50
2011,09,19,05,04,9.50
2011,09,19,05,05,9.40
2011,09,19,05,06,9.40
2011,09,19,05,07,9.40
2011,09,19,05,08,9.40
2011,09,19,05,09,9.40
2011,09,19,05,10,9.40
2011,09,19,05,11,9.30
2011,09,19,05,12,9.30
2011,09,19,05,13,9.30
2011,09,19,05,14,9.30
2011,09,19,05,15,9.30
2011,09,19,05,16,9.30
2011,09,19,05,17,9.30
2011,09,19,05,18,9.30
2011,09,19,05,19,9.30
2011,09,19,05,20,9.30
2011,09,19,05,21,9.20
2011,09,19,05,22,9.20
2011,09,19,05,23,9.20
2011,09,19,05,24,9.20
2011,09,19,05,25,9.30
2011,09,19,05,26,9.30
2011,09,19,05,27,9.20
2011,09,19,05,28,9.30
2011,09,19,05,29,9.20
2011,09,19,05,30,9.20
2011,09,19,05,31,9.20
2011,09,19,05,32,9.20
2011,09,19,05,33,9.20
2011,09,19,05,34,9.20
2011,09,19,05,35,9.20
2011,09,19,05,36,9.20
2011,09,19,05,37,9.20
2011,09,19,05,38,9.20
2011,09,19,05,39,9.20
2011,09,19,05,40,9.20
2011,09,19,05,41,9.20
2011,09,19,05,42,9.20
2011,09,19,05,43,9.10
2011,09,19,05,44,9.10
2011,09,19,05,45,9.10
2011,09,19,05,46,9.10
2011,09,19,05,47,9.10
2011,09,19,05,48,9.10
2011,09,19,05,49,9.10
2011,09,19,05,50,9.10
2011,09,19,05,51,9.10
2011,09,19,05,52,9.10
2011,09,19,05,53,9.10
2011,09,19,05,54,9.10
2011,09,19,05,55,9.10
2011,09,19,05,56,9.10
2011,09,19,05,57,9.10
2011,09,19,05,58,9.10
2011,09,19,05,59,9.10
2011,09,19,06,00,9.10
2011,09,19,06,01,9.10
2011,09,19,06,02,9.00
2011,09,19,06,03,9.00
2011,09,19,06,04,9.00
2011,09,19,06,05,9.00
2011,09,19,06,06,9.00
2011,09,19,06,07,9.00
2011,09,19,06,08,9.00
2011,09,19,06,09,9.00
2011,09,19,06,10,9.00
2011,09,19,06,11,9.00
2011,09,19,06,12,9.00
2011,09,19,06,13,9.00
2011,09,19,06,14,9.00
2011,09,19,06,15,9.00
2011,09,19,06,16,9.00
2011,09,19,06,17,9.00
2011,09,19,06,18,9.00
2011,09,19,06,19,8.90
2011,09,19,06,20,8.90
2011,09,19,06,21,8.90
2011,09,19,06,22,8.90
2011,09,19,06,23,8.90
2011,09,19,06,24,8.90
2011,09,19,06,25,8.90
2011,09,19,06,26,8.90
2011,09,19,06,27,8.90
2011,09,19,06,28,8.90
2011,09,19,06,29,8.80
2011,09,19,06,30,8.80
2011,09,19,06,31,8.80
2011,09,19,06,32,8.80
2011,09,19,06,33,8.80
2011,09,19,06,34,8.80
2011,09,19,06,35,8.80
2011,09,19,06,36,8.80
2011,09,19,06,37,8.80
2011,09,19,06,38,8.80
2011,09,19,06,39,8.80
2011,09,19,06,40,8.80
2011,09,19,06,41,8.80
2011,09,19,06,42,8.80
2011,09,19,06,43,8.80
2011,09,19,06,44,8.80
2011,09,19,06,45,8.80
2011,09,19,06,46,8.80
2011,09,19,06,47,8.80
2011,09,19,06,48,8.80
2011,09,19,06,49,8.80
2011,09,19,06,50,8.80
2011,09,19,06,51,8.70
2011,09,19,06,52,8.70
2011,09,19,06,53,8.70
2011,09,19,06,54,8.70
2011,09,19,06,55,8.70
2011,09,19,06,56,8.60
2011,09,19,06,57,8.60
2011,09,19,06,58,8.60
2011,09,19,06,59,8.60
2011,09,19,07,00,8.60
2011,09,19,07,01,8.60
2011,09,19,07,02,8.60
2011,09,19,07,03,8.60
2011,09,19,07,04,8.60
2011,09,19,07,05,8.60
2011,09,19,07,06,8.60
2011,09,19,07,07,8.50
2011,09,19,07,08,8.50
2011,09,19,07,09,8.50
2011,09,19,07,10,8.50
2011,09,19,07,11,8.50
2011,09,19,07,12,8.50
2011,09,19,07,13,8.50
2011,09,19,07,14,8.50
2011,09,19,07,15,8.40
2011,09,19,07,16,8.50
2011,09,19,07,17,8.50
2011,09,19,07,18,8.40
2011,09,19,07,19,8.50
2011,09,19,07,20,8.50
2011,09,19,07,21,8.50
2011,09,19,07,22,8.50
2011,09,19,07,23,8.50
2011,09,19,07,24,8.50
2011,09,19,07,25,8.50
2011,09,19,07,26,8.50
2011,09,19,07,27,8.40
2011,09,19,07,28,8.40
2011,09,19,07,29,8.40
2011,09,19,07,30,8.40
2011,09,19,07,31,8.40
2011,09,19,07,32,8.40
2011,09,19,07,33,8.40
2011,09,19,07,34,8.40
2011,09,19,07,35,8.40
2011,09,19,07,36,8.40
2011,09,19,07,37,8.40
2011,09,19,07,38,8.40
2011,09,19,07,39,8.40
2011,09,19,07,40,8.40
2011,09,19,07,41,8.40
2011,09,19,07,42,8.30
2011,09,19,07,43,8.30
2011,09,19,07,44,8.30
2011,09,19,07,45,8.30
2011,09,19,07,46,8.30
2011,09,19,07,47,8.30
2011,09,19,07,48,8.30
2011,09,19,07,49,8.30
2011,09,19,07,50,8.30
2011,09,19,07,51,8.30
2011,09,19,07,52,8.30
2011,09,19,07,53,8.30
2011,09,19,07,54,8.20
2011,09,19,07,55,8.20
2011,09,19,07,56,8.20
2011,09,19,07,57,8.20
2011,09,19,07,58,8.20
2011,09,19,07,59,8.20
2011,09,19,08,00,8.20
2011,09,19,08,01,8.20
2011,09,19,08,02,8.20
2011,09,19,08,03,8.20
2011,09,19,08,04,8.20
2011,09,19,08,05,8.20
2011,09,19,08,06,8.20
2011,09,19,08,07,8.20
2011,09,19,08,08,8.20
2011,09,19,08,09,8.10
2011,09,19,08,10,8.10
2011,09,19,08,11,8.10
2011,09,19,08,12,8.10
2011,09,19,08,13,8.10
2011,09,19,08,14,8.10
2011,09,19,08,15,8.10
2011,09,19,08,16,8.10
2011,09,19,08,17,8.10
2011,09,19,08,18,8.10
2011,09,19,08,19,8.20
2011,09,19,08,20,8.10
2011,09,19,08,21,8.10
2011,09,19,08,22,8.10
2011,09,19,08,23,8.10
2011,09,19,08,24,8.10
2011,09,19,08,25,8.10
2011,09,19,08,26,8.10
2011,09,19,08,27,8.10
2011,09,19,08,28,8.10
2011,09,19,08,29,8.10
2011,09,19,08,30,8.10
2011,09,19,08,31,8.10
2011,09,19,08,32,8.20
2011,09,19,08,33,8.20
2011,09,19,08,34,8.20
2011,09,19,08,35,8.20
2011,09,19,08,36,8.20
2011,09,19,08,37,8.20
2011,09,19,08,38,8.20
2011,09,19,08,39,8.20
2011,09,19,08,40,8.30
2011,09,19,08,41,8.30
2011,09,19,08,42,8.30
2011,09,19,08,43,8.30
2011,09,19,08,44,8.30
2011,09,19,08,45,8.30
2011,09,19,08,46,8.30
2011,09,19,08,47,8.40
2011,09,19,08,48,8.40
2011,09,19,08,49,8.40
2011,09,19,08,50,8.50
2011,09,19,08,51,8.50
2011,09,19,08,52,8.50
2011,09,19,08,53,8.60
2011,09,19,08,54,8.60
2011,09,19,08,55,8.60
2011,09,19,08,56,8.70
2011,09,19,08,57,8.70
2011,09,19,08,58,8.70
2011,09,19,08,59,8.70
2011,09,19,09,00,8.70
2011,09,19,09,01,8.70
2011,09,19,09,02,8.70
2011,09,19,09,03,8.70
2011,09,19,09,04,8.70
2011,09,19,09,05,8.70
2011,09,19,09,06,8.70
2011,09,19,09,07,8.80
2011,09,19,09,08,8.80
2011,09,19,09,09,8.80
2011,09,19,09,10,8.90
2011,09,19,09,11,8.90
2011,09,19,09,12,9.00
2011,09,19,09,13,9.00
2011,09,19,09,14,9.10
2011,09,19,09,15,9.10
2011,09,19,09,16,9.20
2011,09,19,09,17,9.30
2011,09,19,09,18,9.30
2011,09,19,09,19,9.40
2011,09,19,09,20,9.40
2011,09,19,09,21,9.50
2011,09,19,09,22,9.60
2011,09,19,09,23,9.60
2011,09,19,09,24,9.60
2011,09,19,09,25,9.70
2011,09,19,09,26,9.80
2011,09,19,09,27,9.80
2011,09,19,09,28,9.90
2011,09,19,09,29,10.00
2011,09,19,09,30,10.10
2011,09,19,09,31,10.20
2011,09,19,09,32,10.20
2011,09,19,09,33,10.30
2011,09,19,09,34,10.30
2011,09,19,09,35,10.30
2011,09,19,09,36,10.30
2011,09,19,09,37,10.40
2011,09,19,09,38,10.40
2011,09,19,09,39,10.50
2011,09,19,09,40,10.50
2011,09,19,09,41,10.60
2011,09,19,09,42,10.70
2011,09,19,09,43,10.70
2011,09,19,09,44,10.70
2011,09,19,09,45,10.80
2011,09,19,09,46,10.80
2011,09,19,09,47,10.80
2011,09,19,09,48,10.90
2011,09,19,09,49,10.90
2011,09,19,09,50,10.90
2011,09,19,09,51,10.90
2011,09,19,09,52,11.00
2011,09,19,09,53,11.00
2011,09,19,09,54,11.10
2011,09,19,09,55,11.20
2011,09,19,09,56,11.20
2011,09,19,09,57,11.20
2011,09,19,09,58,11.30
2011,09,19,09,59,11.30
2011,09,19,10,00,11.40
2011,09,19,10,01,11.50
2011,09,19,10,02,11.50
2011,09,19,10,03,11.60
2011,09,19,10,04,11.60
2011,09,19,10,05,11.60
2011,09,19,10,06,11.60
2011,09,19,10,07,11.70
2011,09,19,10,08,11.80
2011,09,19,10,09,11.80
2011,09,19,10,10,11.90
2011,09,19,10,11,12.00
2011,09,19,10,12,12.10
2011,09,19,10,13,12.20
2011,09,19,10,14,12.30
2011,09,19,10,15,12.40
2011,09,19,10,16,12.50
2011,09,19,10,17,12.50
2011,09,19,10,18,12.60
2011,09,19,10,19,12.70
2011,09,19,10,20,12.80
2011,09,19,10,21,12.90
2011,09,19,10,22,13.00
2011,09,19,10,23,13.00
2011,09,19,10,24,13.10
2011,09,19,10,25,13.10
2011,09,19,10,26,13.20
2011,09,19,10,27,13.30
2011,09,19,10,28,13.40
2011,09,19,10,29,13.50
2011,09,19,10,30,13.50
2011,09,19,10,31,13.60
2011,09,19,10,32,13.70
2011,09,19,10,33,13.80
2011,09,19,10,34,13.80
2011,09,19,10,35,13.90
2011,09,19,10,36,14.00
2011,09,19,10,37,14.00
2011,09,19,10,38,14.10
2011,09,19,10,39,14.10
2011,09,19,10,40,14.10
2011,09,19,10,41,14.10
2011,09,19,10,42,14.10
2011,09,19,10,43,14.20
2011,09,19,10,44,14.20
2011,09,19,10,45,14.30
2011,09,19,10,46,14.30
2011,09,19,10,47,14.40
2011,09,19,10,48,14.40
2011,09,19,10,49,14.40
2011,09,19,10,50,14.40
2011,09,19,10,51,14.50
2011,09,19,10,52,14.50
2011,09,19,10,53,14.50
2011,09,19,10,54,14.60
2011,09,19,10,55,14.60
2011,09,19,10,56,14.60
2011,09,19,10,57,14.60
2011,09,19,10,58,14.70
2011,09,19,10,59,14.80
2011,09,19,11,00,14.80
2011,09,19,11,01,14.90
2011,09,19,11,02,15.00
2011,09,19,11,03,15.00
2011,09,19,11,04,15.10
2011,09,19,11,05,15.10
2011,09,19,11,06,15.20
2011,09,19,11,07,15.30
2011,09,19,11,08,15.20
2011,09,19,11,09,15.20
2011,09,19,11,10,15.20
2011,09,19,11,11,15.20
2011,09,19,11,12,15.20
2011,09,19,11,13,15.10
2011,09,19,11,14,15.10
2011,09,19,11,15,15.10
2011,09,19,11,16,15.00
2011,09,19,11,17,15.00
2011,09,19,11,18,14.90
2011,09,19,11,19,14.90
2011,09,19,11,20,15.00
2011,09,19,11,21,14.90
2011,09,19,11,22,14.90
2011,09,19,11,23,14.90
2011,09,19,11,24,14.80
2011,09,19,11,25,14.80
2011,09,19,11,26,14.80
2011,09,19,11,27,14.80
2011,09,19,11,28,14.80
2011,09,19,11,29,14.80
2011,09,19,11,30,14.80
2011,09,19,11,31,14.90
2011,09,19,11,32,14.90
2011,09,19,11,33,15.00
2011,09,19,11,34,15.00
2011,09,19,11,35,15.10
2011,09,19,11,36,15.10
2011,09,19,11,37,15.10
2011,09,19,11,38,15.10
2011,09,19,11,39,15.00
2011,09,19,11,40,15.00
2011,09,19,11,41,15.00
2011,09,19,11,42,14.90
2011,09,19,11,43,14.90
2011,09,19,11,44,14.90
2011,09,19,11,45,14.90
2011,09,19,11,46,14.90
2011,09,19,11,47,14.90
2011,09,19,11,48,14.90
2011,09,19,11,49,14.90
2011,09,19,11,50,14.90
2011,09,19,11,51,15.00
2011,09,19,11,52,15.00
2011,09,19,11,53,15.00
2011,09,19,11,54,15.00
2011,09,19,11,55,15.10
2011,09,19,11,56,15.10
2011,09,19,11,57,15.10
2011,09,19,11,58,15.20
2011,09,19,11,59,15.20
2011,09,19,12,00,15.20
2011,09,19,12,01,15.20
2011,09,19,12,02,15.20
2011,09,19,12,03,15.20
2011,09,19,12,04,15.20
2011,09,19,12,05,15.20
2011,09,19,12,06,15.20
2011,09,19,12,07,15.20
2011,09,19,12,08,15.20
2011,09,19,12,09,15.30
2011,09,19,12,10,15.30
2011,09,19,12,11,15.40
2011,09,19,12,12,15.40
2011,09,19,12,13,15.40
2011,09,19,12,14,15.40
2011,09,19,12,15,15.40
2011,09,19,12,16,15.40
2011,09,19,12,17,15.40
2011,09,19,12,18,15.40
2011,09,19,12,19,15.40
2011,09,19,12,20,15.40
2011,09,19,12,21,15.40
2011,09,19,12,22,15.40
2011,09,19,12,23,15.30
2011,09,19,12,24,15.30
2011,09,19,12,25,15.30
2011,09,19,12,26,15.20
2011,09,19,12,27,15.30
2011,09,19,12,28,15.30
2011,09,19,12,29,15.30
2011,09,19,12,30,15.30
2011,09,19,12,31,15.30
2011,09,19,12,32,15.30
2011,09,19,12,33,15.30
2011,09,19,12,34,15.40
2011,09,19,12,35,15.40
2011,09,19,12,36,15.50
2011,09,19,12,37,15.50
2011,09,19,12,38,15.60
2011,09,19,12,39,15.70
2011,09,19,12,40,15.80
2011,09,19,12,41,15.90
2011,09,19,12,42,15.90
2011,09,19,12,43,15.90
2011,09,19,12,44,15.90
2011,09,19,12,45,15.90
2011,09,19,12,46,15.90
2011,09,19,12,47,15.80
2011,09,19,12,48,15.70
2011,09,19,12,49,15.70
2011,09,19,12,50,15.60
2011,09,19,12,51,15.60
2011,09,19,12,52,15.50
2011,09,19,12,53,15.40
2011,09,19,12,54,15.40
2011,09,19,12,55,15.40
2011,09,19,12,56,15.40
2011,09,19,12,57,15.40
2011,09,19,12,58,15.40
2011,09,19,12,59,15.30
2011,09,19,13,00,15.20
2011,09,19,13,01,15.20
2011,09,19,13,02,15.20
2011,09,19,13,03,15.20
2011,09,19,13,04,15.10
2011,09,19,13,05,15.10
2011,09,19,13,06,15.10
2011,09,19,13,07,15.10
2011,09,19,13,08,15.10
2011,09,19,13,09,15.10
2011,09,19,13,10,15.00
2011,09,19,13,11,14.90
2011,09,19,13,12,14.90
2011,09,19,13,13,14.80
2011,09,19,13,14,14.80
2011,09,19,13,15,14.80
2011,09,19,13,16,14.80
2011,09,19,13,17,14.80
2011,09,19,13,18,14.90
2011,09,19,13,19,15.00
2011,09,19,13,20,15.10
2011,09,19,13,21,15.20
2011,09,19,13,22,15.30
2011,09,19,13,23,15.40
2011,09,19,13,24,15.50
2011,09,19,13,25,15.60
2011,09,19,13,26,15.80
2011,09,19,13,27,15.90
2011,09,19,13,28,16.00
2011,09,19,13,29,16.10
2011,09,19,13,30,16.20
2011,09,19,13,31,16.30
2011,09,19,13,32,16.30
2011,09,19,13,33,16.20
2011,09,19,13,34,16.20
2011,09,19,13,35,16.20
2011,09,19,13,36,16.10
2011,09,19,13,37,16.10
2011,09,19,13,38,16.10
2011,09,19,13,39,16.10
2011,09,19,13,40,16.10
2011,09,19,13,41,16.10
2011,09,19,13,42,16.10
2011,09,19,13,43,16.00
2011,09,19,13,44,16.00
2011,09,19,13,45,16.00
2011,09,19,13,46,16.00
2011,09,19,13,47,16.00
2011,09,19,13,48,16.10
2011,09,19,13,49,16.10
2011,09,19,13,50,16.10
2011,09,19,13,51,16.00
2011,09,19,13,52,15.90
2011,09,19,13,53,15.80
2011,09,19,13,54,15.70
2011,09,19,13,55,15.60
2011,09,19,13,56,15.60
2011,09,19,13,57,15.50
2011,09,19,13,58,15.50
2011,09,19,13,59,15.50
2011,09,19,14,00,15.40
2011,09,19,14,01,15.40
2011,09,19,14,02,15.30
2011,09,19,14,03,15.30
2011,09,19,14,04,15.40
2011,09,19,14,05,15.40
2011,09,19,14,06,15.30
2011,09,19,14,07,15.30
2011,09,19,14,08,15.30
2011,09,19,14,09,15.20
2011,09,19,14,10,15.20
2011,09,19,14,11,15.10
2011,09,19,14,12,15.10
2011,09,19,14,13,15.10
2011,09,19,14,14,15.10
2011,09,19,14,15,15.10
2011,09,19,14,16,15.10
2011,09,19,14,17,15.00
2011,09,19,14,18,15.00
2011,09,19,14,19,15.00
2011,09,19,14,20,14.90
2011,09,19,14,21,14.90
2011,09,19,14,22,14.90
2011,09,19,14,23,14.90
2011,09,19,14,24,14.90
2011,09,19,14,25,15.00
2011,09,19,14,26,15.00
2011,09,19,14,27,15.10
2011,09,19,14,28,15.20
2011,09,19,14,29,15.30
2011,09,19,14,30,15.40
2011,09,19,14,31,15.60
2011,09,19,14,32,15.70
2011,09,19,14,33,15.80
2011,09,19,14,34,15.90
2011,09,19,14,35,16.00
2011,09,19,14,36,16.10
2011,09,19,14,37,16.20
2011,09,19,14,38,16.30
2011,09,19,14,39,16.40
2011,09,19,14,40,16.50
2011,09,19,14,41,16.60
2011,09,19,14,42,16.70
2011,09,19,14,43,16.80
2011,09,19,14,44,16.80
2011,09,19,14,45,16.80
2011,09,19,14,46,16.90
2011,09,19,14,47,17.00
2011,09,19,14,48,17.10
2011,09,19,14,49,17.30
2011,09,19,14,50,17.40
2011,09,19,14,51,17.50
2011,09,19,14,52,17.50
2011,09,19,14,53,17.60
2011,09,19,14,54,17.60
2011,09,19,14,55,17.50
2011,09,19,14,56,17.40
2011,09,19,14,57,17.40
2011,09,19,14,58,17.30
2011,09,19,14,59,17.20
2011,09,19,15,00,17.00
2011,09,19,15,01,16.90
2011,09,19,15,02,16.80
2011,09,19,15,03,16.80
2011,09,19,15,04,16.70
2011,09,19,15,05,16.70
2011,09,19,15,06,16.70
2011,09,19,15,07,16.70
2011,09,19,15,08,16.70
2011,09,19,15,09,16.70
2011,09,19,15,10,16.70
2011,09,19,15,11,16.70
2011,09,19,15,12,16.70
2011,09,19,15,13,16.60
2011,09,19,15,14,16.60
2011,09,19,15,15,16.60
2011,09,19,15,16,16.70
2011,09,19,15,17,16.70
2011,09,19,15,18,16.80
2011,09,19,15,19,16.80
2011,09,19,15,20,16.90
2011,09,19,15,21,17.00
2011,09,19,15,22,17.00
2011,09,19,15,23,17.10
2011,09,19,15,24,17.00
2011,09,19,15,25,17.00
2011,09,19,15,26,17.10
2011,09,19,15,27,17.20
2011,09,19,15,28,17.20
2011,09,19,15,29,17.20
2011,09,19,15,30,17.20
2011,09,19,15,31,17.20
2011,09,19,15,32,17.00
2011,09,19,15,33,16.90
2011,09,19,15,34,16.70
2011,09,19,15,35,16.50
2011,09,19,15,36,16.30
2011,09,19,15,37,16.10
2011,09,19,15,38,16.00
2011,09,19,15,39,15.90
2011,09,19,15,40,15.90
2011,09,19,15,41,15.80
2011,09,19,15,42,15.70
2011,09,19,15,43,15.70
2011,09,19,15,44,15.70
2011,09,19,15,45,15.80
2011,09,19,15,46,15.90
2011,09,19,15,47,16.00
2011,09,19,15,48,16.00
2011,09,19,15,49,15.90
2011,09,19,15,50,15.90
2011,09,19,15,51,15.80
2011,09,19,15,52,15.90
2011,09,19,15,53,15.90
2011,09,19,15,54,16.00
2011,09,19,15,55,16.10
2011,09,19,15,56,16.10
2011,09,19,15,57,16.20
2011,09,19,15,58,16.40
2011,09,19,15,59,16.40
2011,09,19,16,00,16.40
2011,09,19,16,01,16.40
2011,09,19,16,02,16.40
2011,09,19,16,03,16.40
2011,09,19,16,04,16.50
2011,09,19,16,05,16.60
2011,09,19,16,06,16.70
2011,09,19,16,07,16.50
2011,09,19,16,08,16.40
2011,09,19,16,09,16.40
2011,09,19,16,10,16.30
2011,09,19,16,11,16.30
2011,09,19,16,12,16.30
2011,09,19,16,13,16.20
2011,09,19,16,14,16.20
2011,09,19,16,15,16.20
2011,09,19,16,16,16.20
2011,09,19,16,17,16.20
2011,09,19,16,18,16.20
2011,09,19,16,19,16.20
2011,09,19,16,20,16.30
2011,09,19,16,21,16.30
2011,09,19,16,22,16.40
2011,09,19,16,23,16.30
2011,09,19,16,24,16.30
2011,09,19,16,25,16.20
2011,09,19,16,26,16.20
2011,09,19,16,27,16.10
2011,09,19,16,28,16.10
2011,09,19,16,29,16.20
2011,09,19,16,30,16.30
2011,09,19,16,31,16.30
2011,09,19,16,32,16.30
2011,09,19,16,33,16.30
2011,09,19,16,34,16.30
2011,09,19,16,35,16.30
2011,09,19,16,36,16.30
2011,09,19,16,37,16.30
2011,09,19,16,38,16.30
2011,09,19,16,39,16.30
2011,09,19,16,40,16.30
2011,09,19,16,41,16.30
2011,09,19,16,42,16.30
2011,09,19,16,43,16.30
2011,09,19,16,44,16.40
2011,09,19,16,45,16.40
2011,09,19,16,46,16.40
2011,09,19,16,47,16.50
2011,09,19,16,48,16.60
2011,09,19,16,49,16.60
2011,09,19,16,50,16.60
2011,09,19,16,51,16.70
2011,09,19,16,52,16.70
2011,09,19,16,53,16.70
2011,09,19,16,54,16.70
2011,09,19,16,55,16.70
2011,09,19,16,56,16.70
2011,09,19,16,57,16.70
2011,09,19,16,58,16.80
2011,09,19,16,59,16.80
2011,09,19,17,00,16.80
2011,09,19,17,01,16.80
2011,09,19,17,02,16.80
2011,09,19,17,03,16.70
2011,09,19,17,04,16.80
2011,09,19,17,05,16.80
2011,09,19,17,06,16.80
2011,09,19,17,07,16.90
2011,09,19,17,08,16.90
2011,09,19,17,09,16.90
2011,09,19,17,10,16.80
2011,09,19,17,11,16.80
2011,09,19,17,12,16.80
2011,09,19,17,13,16.80
2011,09,19,17,14,16.70
2011,09,19,17,15,16.60
2011,09,19,17,16,16.60
2011,09,19,17,17,16.50
2011,09,19,17,18,16.50
2011,09,19,17,19,16.40
2011,09,19,17,20,16.40
2011,09,19,17,21,16.30
2011,09,19,17,22,16.30
2011,09,19,17,23,16.30
2011,09,19,17,24,16.30
2011,09,19,17,25,16.30
2011,09,19,17,26,16.20
2011,09,19,17,27,16.20
2011,09,19,17,28,16.10
2011,09,19,17,29,16.00
2011,09,19,17,30,16.00
2011,09,19,17,31,15.90
2011,09,19,17,32,15.90
2011,09,19,17,33,15.90
2011,09,19,17,34,15.90
2011,09,19,17,35,15.90
2011,09,19,17,36,15.90
2011,09,19,17,37,15.90